STARLINK-1646 (46351 NORAD) Tracking and Keplerian Element Data

This shows tracking and keplerian element data for the satellite.

Feedback or suggestion? Click here.




ElementValue
Catalog46351
NameSTARLINK-1646
Epoch Orbit178
Epoch Day268.91668981
Epoch Year2020
RAAN323.7861
Inclination53.0008
Eccentricity0.0001383
Argument of Perigee66.2319
Mean Anonmoly126.4394
Mean Motion15.62762529
Decay Rate4.731E-05
L11 46351U 20062AC 20268.91668981 .00004731 00000-0 57452-4 0 9997
L22 46351 53.0008 323.7861 0001383 66.2319 126.4394 15.62762529 1789

Live tracking and technical data element details for STARLINK-1646 (NORAD 46351). STARLINK-1646 can be tracked NOW for your location showing map with azimuth and elevation plus other details from your city location.

Track the satellite on the map from your city or location and see movement details for azimuth, elevation, latitude, longitude, range, height, and movement on the map or in text.







IsCatalogInMostPopularTable: catalog: 46351, numindb: 2
Update: records affected: 1



GetName: 46351 STARLINK-1646

Hit Count: updated at: Mon, 28 Sep 2020 16:37:05 GMT